Dewpoint
31 23 21 28 29 28 26 25 21 21 26 27 25 25 24 26 27 27 27 27 28 28 28 29 30 30 31 31 33 34 36 37 39 41 42 44 46 48 53 54 54 57 61 61
25 23 29 30 29 27 25 23 22 25 27 27 25 23 23 26 27 28 27 28 28 29 28 28 29 29 30 30 32 33 35 36 37 39 40 43 44 47 52 50 51 53 55 61
22 27 30 27 27 23 25 24 25 26 27 27 23 16 18 22 26 27 28 29 29 29 29 27 28 28 30 29 31 32 34 36 36 37 38 42 45 48 46 47 49 51 53 55
26 27 27 26 26 27 20 29 29 28 25 16 22 5 17 19 20 26 27 27 28 29 29 27 28 27 28 30 31 32 34 35 35 36 37 38 40 40 42 45 48 50 50 52
24 24 23 21 25 30 25 30 29 28 26 24 20 16 13 18 17 21 25 27 27 29 29 27 28 28 28 30 31 32 33 35 35 36 37 37 38 40 40 43 45 46 48 50
27 31 29 27 29 30 29 29 23 22 25 29 21 16 3 13 18 21 24 26 28 29 29 27 28 28 27 29 30 32 33 34 35 36 36 37 38 38 39 40 42 44 46 48
21 23 26 30 24 28 24 19 31 31 32 26 17 15 7 16 20 22 26 27 28 29 29 27 27 28 27 27 29 30 32 33 34 35 36 37 37 38 38 39 40 42 44 45
30 32 23 27 28 22 24 17 21 23 15 7 14 11 -1 20 22 24 27 28 29 28 29 28 27 28 27 27 28 29 30 32 34 34 35 36 37 37 38 39 40 42 43 45
26 24 26 28 29 28 24 24 21 20 15 16 6 3 2 18 22 25 25 26 26 27 28 28 27 28 27 26 27 29 30 32 33 34 35 36 36 37 38 39 40 41 42 43
28 30 24 25 30 29 24 23 17 23 19 22 10 -1 -5 7 15 21 22 23 25 27 28 29 28 28 28 27 27 28 30 32 33 33 35 36 36 37 38 38 39 40 41 42
28 32 25 24 29 25 25 26 19 18 17 16 14 3 14 11 16 21 20 25 25 26 27 29 29 29 28 27 26 28 29 31 33 33 35 36 36 36 37 38 39 40 41 42
22 29 21 29 26 27 26 21 19 13 22 16 16 11 12 16 19 24 26 26 22 25 25 27 29 29 29 27 25 27 28 30 32 33 35 35 35 36 36 37 38 39 40 42
23 28 31 25 24 25 26 24 23 16 18 20 21 22 15 17 22 24 26 29 26 25 27 29 30 30 30 27 24 25 27 29 31 33 35 35 35 35 36 36 37 38 39 41
24 27 30 24 27 23 25 25 24 22 23 19 17 31 30 28 27 29 32 34 34 33 33 30 32 32 32 27 25 24 26 28 30 32 34 34 34 34 35 35 36 37 38 39
19 25 19 21 18 18 22 24 27 22 19 27 29 20 27 33 29 31 30 28 35 35 34 35 34 35 34 31 28 26 26 29 29 31 33 33 33 33 34 35 35 36 37 37
24 26 19 22 17 20 20 21 26 25 24 20 20 19 23 23 24 30 32 34 34 34 35 34 35 34 33 32 29 25 31 28 29 30 33 33 32 33 33 34 34 35 35 36
23 23 22 30 14 16 25 20 21 25 26 22 19 26 23 24 22 27 27 28 33 29 27 33 31 33 34 32 28 27 26 29 28 30 33 33 32 33 33 34 33 33 34 35
22 22 23 29 22 26 34 19 20 23 26 26 24 25 23 22 20 23 23 23 23 24 24 27 29 26 29 30 32 27 27 28 28 30 30 31 31 32 34 34 32 33 33 34
22 17 22 25 26 28 26 18 21 17 23 21 23 22 22 19 19 15 18 20 20 21 24 29 30 26 25 26 27 27 28 28 28 29 29 29 30 30 30 31 31 31 32 32
18 18 22 19 23 26 26 19 19 15 19 20 21 21 21 18 10 7 23 26 25 26 28 30 31 27 25 24 25 26 26 26 27 28 29 28 29 28 30 29 30 30 30 30
23 23 20 20 24 25 23 19 20 26 27 18 20 20 21 16 11 19 25 28 28 29 31 31 29 26 26 25 26 27 27 26 26 28 29 28 27 27 28 28 28 29 30 29
21 21 21 19 19 19 22 17 14 21 22 18 20 20 22 20 19 24 26 28 29 29 31 31 29 28 27 26 26 26 25 27 27 28 28 28 28 27 28 28 28 28 29 30
24 24 22 20 21 25 20 24 22 22 21 22 20 23 22 22 22 23 25 27 29 29 30 32 31 30 28 27 27 27 27 27 26 26 26 27 27 27 28 29 28 28 28 29
23 23 27 25 27 21 23 25 24 24 23 25 25 22 23 21 21 24 26 27 29 30 30 30 30 29 29 27 26 27 27 26 25 26 26 26 26 27 26 27 27 29 29 28
27 25 26 25 26 25 27 25 25 27 26 24 26 26 22 23 22 23 26 29 30 30 30 30 31 31 31 30 28 28 26 25 26 27 27 27 27 27 27 26 27 26 28 28
25 27 25 28 28 30 31 31 30 29 27 26 26 27 28 27 26 28 30 31 31 31 30 29 30 31 32 31 30 29 26 25 26 27 27 26 26 26 26 26 26 27 27 26
Lifted_Index
7 6 6 7 7 6 5 3 3 4 6 6 6 7 8 9 7 6 6 6 6 6 6 7 8 10 11 11 11 9 9 8 7 5 3 3 4 4 3 3 2 2 1 1
6 6 7 8 7 6 5 3 3 4 5 6 6 7 8 9 8 6 6 6 6 6 6 7 9 10 11 11 11 10 9 8 8 6 4 4 4 4 3 3 3 2 2 1
6 7 7 8 7 6 5 4 3 3 4 5 5 6 7 8 8 6 6 7 7 7 7 8 9 11 11 12 12 11 10 9 9 8 7 5 4 4 4 4 3 3 2 2
6 7 7 7 7 6 6 5 4 3 3 3 4 4 6 7 7 6 6 7 8 8 8 8 10 11 12 13 13 12 10 9 9 10 9 7 5 5 4 4 4 3 3 3
7 7 7 7 8 8 7 6 5 3 2 3 3 3 5 7 7 6 6 7 8 8 9 9 10 12 13 13 13 12 10 9 10 10 11 10 7 5 5 5 5 4 4 3
7 8 8 8 9 9 8 6 4 3 2 2 2 3 4 6 7 7 7 7 8 9 9 9 10 11 13 13 12 11 10 9 10 11 11 11 10 7 6 5 5 5 4 4
6 7 8 9 9 9 8 5 3 1 1 1 2 2 4 6 8 8 8 8 8 8 9 9 10 11 13 13 12 11 11 10 10 11 12 12 11 10 8 7 6 5 5 4
4 5 7 9 9 8 7 5 3 1 1 1 2 2 4 7 9 9 9 9 8 8 9 9 10 11 12 14 13 13 12 11 11 11 11 12 12 11 11 10 8 6 5 5
4 4 7 9 9 9 8 6 5 3 1 1 1 2 4 6 8 9 9 9 9 9 9 10 10 11 12 14 14 14 13 12 11 11 11 11 11 12 12 12 11 9 7 6
4 5 6 8 9 9 8 8 6 4 2 1 1 2 3 5 7 8 9 9 9 9 9 10 11 11 13 14 15 15 14 13 12 11 11 11 11 11 12 12 12 11 9 8
5 5 5 7 8 8 8 8 6 4 2 1 1 1 3 5 7 8 9 9 9 10 10 10 11 12 13 14 15 15 15 14 12 11 11 10 10 10 11 11 12 11 11 10
5 4 4 5 7 8 8 8 7 5 3 2 1 2 4 6 7 8 9 9 10 10 10 10 11 12 13 14 14 15 15 14 13 11 11 10 10 10 11 11 11 11 11 11
5 4 3 4 6 7 8 8 8 6 4 3 2 2 4 6 6 8 8 9 9 10 10 11 11 12 13 13 14 15 15 15 13 11 11 11 10 11 11 11 12 11 11 11
5 4 3 3 4 5 6 7 7 7 5 3 2 3 4 5 6 7 8 9 9 10 10 10 11 12 13 13 14 14 15 15 12 11 11 11 11 11 11 12 12 12 11 11
4 3 3 3 4 4 5 6 6 6 5 4 3 4 4 5 6 7 8 8 9 9 10 10 11 12 13 13 14 14 15 14 12 11 11 11 10 10 11 11 11 11 10 10
3 3 2 3 3 4 4 5 5 6 6 5 4 4 5 6 6 7 8 8 9 9 9 10 10 11 12 13 13 13 13 13 12 11 11 10 10 10 10 10 10 10 9 9
3 2 2 2 2 3 3 4 5 6 6 6 5 6 6 6 6 7 8 8 9 9 10 10 10 11 12 13 13 12 11 11 11 11 11 11 11 10 10 10 10 9 9 9
3 2 2 2 2 2 3 4 5 5 6 6 6 7 7 7 7 8 8 9 9 10 10 10 10 11 12 13 13 12 11 11 11 11 11 12 12 11 10 10 9 9 9 8
3 3 2 2 2 2 2 4 5 5 5 5 6 7 7 8 7 8 9 10 10 11 11 11 11 11 12 13 13 13 11 11 11 11 12 13 14 12 11 10 9 9 8 8
3 3 2 2 2 2 2 3 4 4 4 5 5 6 7 7 7 7 9 10 10 11 11 12 11 11 12 12 13 12 12 11 11 12 13 14 15 14 13 11 10 9 8 8
2 2 2 2 2 2 2 3 4 3 3 4 5 6 7 7 7 8 9 10 10 11 12 12 12 12 12 12 12 12 12 12 12 13 13 14 15 16 15 14 12 10 9 8
2 2 2 2 2 2 3 3 3 3 4 5 6 7 7 8 8 9 9 9 9 10 11 12 12 12 12 12 12 11 11 12 13 13 13 14 15 15 16 15 14 12 10 9
3 3 3 3 3 3 3 3 4 4 4 5 6 7 8 8 7 8 8 8 8 9 10 11 12 11 12 12 12 11 12 12 13 13 13 13 14 14 15 15 14 13 11 10
4 4 3 3 3 3 3 3 4 4 5 5 6 7 8 8 8 8 8 8 8 8 9 10 11 11 11 11 12 12 12 12 12 12 12 13 13 13 14 14 14 13 13 12
4 4 4 4 3 3 3 3 3 4 5 5 5 7 8 8 8 8 8 8 7 7 7 8 9 9 10 11 11 12 12 11 11 11 11 12 12 12 13 13 13 14 14 14
4 4 4 3 3 3 3 3 3 4 4 4 5 6 7 8 8 8 8 8 7 7 7 7 8 8 9 10 11 12 12 11 11 10 11 11 11 12 12 13 13 14 14 15